Location: La Vergne
(36.0160°N, 86.5820°W)
Time: 00:01:01
(UTC-05:00)

Daily predictions for brighter satellites

Satellite Brightness Start Highest point End
(mag) Time Altitude Azimuth Time Altitude Azimuth Time Altitude Azimuth
ATLAS CENTAUR R/B 4.4 00:07:39 74° NNE 00:07:39 74° NNE 00:28:16 10° NE
ATLAS 3B R/B 4.4 00:54:42 28° NE 00:54:42 28° NE 00:57:55 10° NE
CZ-4C R/B 4.3 02:01:21 22° NE 02:01:21 22° NE 02:03:22 10° NE
CZ-3A R/B 4.2 02:04:31 49° ESE 02:04:51 49° ESE 02:35:41 10° NE
SL-16 R/B 4.5 02:20:43 20° E 02:22:41 23° ENE 02:27:21 10° NNE
ATLAS 3B R/B 4.2 02:41:57 28° NW 02:41:57 28° NW 02:47:59 10° NNE
ATLAS CENTAUR R/B 4.4 02:41:55 10° N 02:43:55 14° NE 02:43:55 14° NE
CZ-2D R/B 3.9 02:42:01 10° NE 02:45:24 26° ENE 02:45:24 26° ENE
Cosmos 2369 Rocket 3.9 02:51:12 10° N 02:56:02 29° ENE 02:59:34 16° ESE
SL-16 R/B 4.2 03:14:39 17° NNW 03:14:39 17° NNW 03:17:01 10° N
ARIANE 5 R/B 3.3 03:11:47 10° NNE 03:15:40 50° NNE 03:15:40 50° NNE
Resurs 1-4 Rocket 2.5 03:19:09 10° NNE 03:23:37 59° NE 03:23:37 59° NE
Cosmos 883 Rocket 4.3 03:29:56 84° NNE 03:29:56 84° NNE 03:35:53 10° N
SeaSat 1 4.4 03:26:54 10° ESE 03:31:03 28° ENE 03:35:13 10° N
USA 234 3.3 03:25:39 10° NE 03:32:05 61° NW 03:32:36 59° WNW
Cosmos 2315 Rocket 4.0 03:39:23 61° SSE 03:40:26 75° E 03:46:42 10° N
Okean O Rocket 3.2 03:37:23 10° NE 03:41:17 29° E 03:42:13 27° ESE
CZ-4C R/B 4.0 03:46:31 18° NW 03:46:50 18° NW 03:50:53 10° N
Cosmos 2251 Rocket 4.2 03:48:47 41° NW 03:48:47 41° NW 03:52:50 10° N
NOSS 3-2 (A) 4.3 03:48:28 36° NW 03:48:47 36° NW 03:54:49 10° NNE
ATLAS 5 CENTAUR R/B 1.8 03:51:30 76° E 03:51:30 76° E 03:56:24 10° NE
CZ-2D R/B 3.9 03:48:31 10° NNE 03:52:35 63° ENE 03:52:35 63° ENE
UNKNOWN OBJECT B 4.2 03:49:35 10° NNE 03:51:42 33° NNE 03:51:42 33° NNE
Cosmos 1869 4.0 03:55:35 51° ENE 03:55:35 51° ENE 03:59:09 10° NNE
Spot 3 4.5 03:52:23 10° N 03:57:48 78° WNW 03:58:13 73° WSW
SL-27 R/B 4.1 04:00:14 30° ESE 04:00:26 30° ESE 04:03:40 10° NE
NOSS 3-3 (A) 4.4 03:53:49 10° NW 04:01:20 69° WSW 04:09:15 10° SSE
NOSS 3-3 (C) 4.4 03:53:54 10° NW 04:01:26 69° WSW 04:09:21 10° SSE
MOS 1-B 4.2 03:57:44 10° N 04:03:32 77° WNW 04:04:39 58° SW
NOSS 3-2 (C) 4.3 04:04:09 34° WNW 04:05:04 35° NW 04:11:05 10° NNE
SL-16 R/B 2.6 04:05:49 51° WSW 04:05:52 51° W 04:11:54 10° NNW
CENTAUR R/B 2.7 04:05:35 41° S 04:07:44 66° ESE 04:14:19 10° NE
Cosmos 724 4.5 04:08:26 49° W 04:09:13 53° WNW 04:15:06 10° NNE
Meteor 2-11 Rocket 4.3 04:07:57 50° SSW 04:09:35 74° W 04:15:40 10° N
Atlas Centaur 2 3.8 04:10:10 14° SSE 04:10:22 14° SSE 04:12:50 10° ESE
Cosmos 1892 4.3 04:07:00 10° NNW 04:08:51 27° NNW 04:08:51 27° NNW
Meteor 2-10 4.2 04:11:13 53° W 04:11:33 54° W 04:16:54 10° N
Meteor 2-3 Rocket 4.2 04:06:07 10° NNW 04:11:03 43° WNW 04:11:03 43° WNW
ARGOS Delta rocket 3.5 04:15:49 10° N 04:20:13 78° WNW 04:20:54 61° SW
BREEZE-M DEB (TANK) 4.2 04:19:15 37° SSW 04:21:21 64° SE 04:37:20 10° NE
COSMOS 2406 3.7 04:19:14 23° S 04:22:45 59° ESE 04:28:24 10° NNE
Cosmos 1862 Rocket 3.4 04:23:05 63° WSW 04:23:27 67° W 04:27:50 10° N
ATLAS CENTAUR R/B 3.8 04:19:43 10° NW 04:20:01 12° NW 04:20:01 12° NW
MOZ.5/SAFIR/RUBIN 5/SL-8 3.8 04:20:48 10° SSE 04:25:25 81° ENE 04:30:05 10° N
Cosmos 1943 4.2 04:25:33 28° WNW 04:26:11 29° WNW 04:31:04 10° N
CZ-2D R/B 2.9 04:21:56 10° N 04:26:31 31° WNW 04:26:43 31° WNW
Cosmos 839 Rocket 4.5 04:22:07 10° NW 04:29:21 45° WSW 04:35:23 10° S
Nadezhda 1 Rocket 4.4 04:24:51 10° S 04:30:59 64° E 04:37:13 10° NNE
Cosmos 1709 Rocket 4.4 04:29:44 10° NNW 04:35:36 41° W 04:37:52 30° SW
OAO 3 Copernicus 4.2 04:35:58 38° W 04:37:48 68° S 04:42:49 10° ESE
CZ-4B DEB 4.1 04:34:03 10° NNE 04:39:32 89° E 04:43:58 16° SSW
Cosmos 1455 3.5 04:40:22 25° WNW 04:40:22 25° WNW 04:43:00 10° NNW
Cosmos 2369 Rocket 2.7 04:35:01 10° NW 04:40:01 34° WSW 04:41:02 32° SW
Okean 1-7 4.4 04:36:43 10° SSE 04:40:41 39° E 04:44:43 10° NNE
PSLV R/B 3.9 04:37:17 10° N 04:40:56 48° WNW 04:41:24 45° W
CZ-4B R/B 3.0 04:37:39 10° N 04:42:58 78° WNW 04:46:46 19° SSW
Cosmos 1302 Rocket 4.3 04:39:22 10° NNW 04:44:17 41° WSW 04:48:25 14° SSW
Cosmos 389 Rocket 2.9 04:45:45 39° WNW 04:45:45 39° WNW 04:49:00 10° N
Cosmos 1733 Rocket 3.8 04:49:10 10° NNW 04:53:04 32° W 04:53:57 29° WSW
ARIANE 5 R/B 4.5 04:53:18 10° NW 04:55:28 13° WNW 04:56:01 12° WNW
ASTRO F (AKARI) 4.4 04:52:32 10° SSE 04:56:13 86° W 04:59:43 10° NNW
Cosmos 2074 Rocket 3.9 04:51:21 10° NNW 04:57:30 65° W 05:03:39 10° S
Cosmos 2327 Rocket 4.4 04:53:46 10° NNW 04:59:48 64° W 05:05:53 10° S
Cosmos 1782 Rocket 3.8 04:55:56 10° N 05:00:15 69° E 05:04:33 10° SSE
Cosmos 2184 Rocket 4.0 04:54:08 10° NNW 05:00:27 65° W 05:06:42 10° S
BREEZE-M DEB (TANK) 2.8 05:00:33 36° WSW 05:01:27 69° NW 05:05:40 10° NE
Cosmos 1184 Rocket 4.1 05:00:35 10° NW 05:02:58 23° W 05:02:58 23° W
Resurs 1-4 Rocket 3.9 05:01:02 10° NNW 05:03:37 14° WNW 05:04:41 13° WNW
Cosmos 1943 Rocket 2.3 05:01:18 10° NNW 05:06:47 51° WSW 05:12:11 10° S
COSMOS 2487 3.2 05:04:46 10° S 05:08:17 54° ESE 05:11:49 10° NNE
SeaSat 1 3.0 05:03:59 10° S 05:08:25 34° WSW 05:12:54 10° NW
Meteor 1-31 Rocket 4.1 05:08:03 10° NNE 05:11:40 41° E 05:15:15 10° S
Geosat 4.0 05:06:50 10° NNE 05:11:50 67° WNW 05:16:36 11° SW
Cosmos 2221 Rocket 3.8 05:12:43 10° SSW 05:17:02 49° W 05:21:20 10° N
Cosmos 1610 Rocket 4.5 05:10:45 10° NNW 05:17:02 68° W 05:23:14 10° S
Okean O Rocket 3.0 05:14:01 10° NNW 05:17:28 22° WNW 05:19:41 16° WSW
Cosmos 2341 Rocket 4.4 05:12:17 10° N 05:18:35 69° E 05:24:52 10° SSE
Cosmos 1408 3.1 05:15:36 10° NNW 05:19:05 38° W 05:22:34 10° SSW
ADEOS II 2.0 05:15:10 10° N 05:20:26 80° WNW 05:25:41 10° SSW
Cosmos 1825 2.7 05:17:01 10° NNW 05:20:30 36° W 05:23:59 10° SSW
Cosmos 1908 Rocket 4.1 05:16:51 10° NNW 05:20:52 36° W 05:24:50 10° SSW
Okean-O 2.6 05:16:38 10° N 05:21:02 66° WNW 05:25:25 10° SSW
Cosmos 1862 4.0 05:19:04 10° NNW 05:22:38 32° W 05:26:11 10° SSW
Thor Agena Rocket 3.8 05:18:42 10° S 05:23:35 46° W 05:28:34 10° NNW
Cosmos 1190 Rocket 4.0 05:22:05 10° SSW 05:27:12 61° WNW 05:32:21 10° N
GPS 2-05 Rocket1 3.8 05:27:09 12° SW 05:29:51 34° SSE 05:32:50 10° E
Cosmos 2285 Rocket 4.1 05:23:54 10° NNW 05:30:08 54° WSW 05:36:18 10° S
CZ-4B R/B 4.3 05:27:57 10° NNW 05:30:31 18° WNW 05:32:45 12° WSW
Feng Yun 1-1 Rocket 4.2 05:26:56 10° N 05:32:16 65° WNW 05:37:37 10° SSW
Meteor 1-26 Rocket 4.4 05:27:39 10° SSW 05:33:22 59° W 05:39:10 10° N
ATLAS 5 CENTAUR R/B 3.9 05:33:51 10° WNW 05:36:40 15° NW 05:39:37 10° N
NAVSTAR 52 R/B(PAM-D 4.2 05:35:43 10° WNW 05:37:15 27° N 05:38:45 10° ENE
CZ-3 R/B 4.1 05:07:31 10° W 05:39:26 38° SW 05:48:06 10° SSE
Cosmos 1656 Rocket 3.6 05:34:49 10° NNW 05:40:07 58° WSW 05:45:24 10° S
Cosmos 1992 Rocket 4.4 05:36:01 10° NNW 05:40:55 42° WSW 05:45:48 10° S
MOS 1 Rocket 3.2 05:37:33 10° NNE 05:41:51 80° ESE 05:46:08 10° S
Meteor 1-14 Rocket 4.3 05:36:39 10° NNW 05:42:28 72° W 05:48:22 10° S
Cosmos 1954 Rocket 4.0 05:42:01 10° SSW 05:47:10 90° NW 05:52:24 10° NNE
Cosmos 2151 Rocket 3.7 05:43:51 10° N 05:48:16 83° E 05:52:39 10° S
